Temperature
22 22 22 21 20 20 22 23 24 24 23 23 23 23 22 21 21 21 21 21 21 20 20 20 20 19 20 20 20 20 20 20 20 20 20 19 19 19 19 19 19 19 19 19 19 19 19 19 19
23 23 22 22 20 21 23 23 24 24 24 24 23 22 21 20 20 20 20 20 21 20 20 20 20 20 20 20 20 20 20 20 20 20 19 19 19 19 19 19 19 19 19 19 19 19 19 19 19
24 23 23 20 21 22 24 24 24 24 24 24 23 22 21 20 20 20 20 20 20 20 20 20 20 20 20 20 20 20 20 19 19 19 19 19 19 19 19 19 19 19 19 19 19 19 19 19 19
24 23 23 21 23 23 24 24 24 24 24 24 22 21 21 20 21 21 20 20 20 20 20 20 20 20 20 20 20 19 19 19 19 19 19 19 19 19 19 19 19 19 19 19 19 18 18 18 18
24 24 21 22 23 24 24 25 25 24 23 23 22 21 20 20 21 21 21 20 20 20 20 20 20 20 20 19 19 19 19 19 19 19 19 19 19 19 19 19 19 19 19 19 18 18 18 18 18
25 22 21 22 23 24 24 25 25 23 23 23 22 20 20 21 21 21 21 21 21 21 20 20 20 20 20 19 19 19 19 19 19 19 19 19 19 19 19 19 19 19 19 18 18 18 18 18 18
24 21 22 22 22 24 25 25 24 23 23 23 22 20 20 20 21 21 21 21 21 20 20 20 20 20 20 19 19 19 19 19 19 19 19 19 19 19 19 19 19 19 19 18 18 18 18 18 18
25 21 22 21 23 23 24 25 25 24 23 23 23 21 20 21 21 20 20 20 20 20 20 20 20 20 20 19 19 19 19 19 19 19 19 19 19 19 19 19 19 19 19 18 18 18 18 18 18
25 21 21 22 23 23 23 24 25 24 23 23 22 22 23 21 20 20 20 20 20 20 20 20 20 20 20 20 19 19 19 19 19 19 19 19 19 19 19 19 19 19 19 18 18 18 18 18 18
24 21 23 23 22 22 23 23 23 23 22 22 22 22 22 21 20 20 20 20 20 21 21 20 20 20 20 20 19 19 19 19 19 19 19 19 19 19 19 19 19 19 19 18 18 18 18 18 18
24 22 23 23 23 23 23 22 21 21 20 20 20 21 21 20 20 20 20 20 21 21 20 21 20 20 20 20 20 19 19 19 19 19 19 19 18 18 18 19 19 19 19 19 18 18 18 18 18
24 23 23 23 23 23 22 21 19 18 18 19 20 20 20 19 19 19 20 20 20 20 20 20 20 20 20 20 20 19 19 19 19 19 19 19 18 18 18 19 19 19 19 19 18 18 18 18 17
24 23 23 23 22 21 20 19 18 17 17 18 19 19 18 18 18 18 18 19 19 20 20 20 20 20 20 20 19 19 19 19 19 19 19 19 19 18 18 18 18 19 19 18 18 18 18 18 17
24 23 22 22 21 20 18 17 17 16 16 16 17 16 16 17 17 17 18 18 18 19 19 19 19 20 20 20 19 19 19 19 19 19 19 19 19 18 18 18 18 18 18 18 18 18 18 18 18
24 22 21 21 21 20 19 16 15 15 15 14 14 15 15 16 16 16 16 17 17 18 18 19 19 19 19 19 19 19 19 19 19 19 19 18 19 18 18 18 18 18 18 18 18 18 18 18 18
22 21 20 20 19 19 18 14 15 14 14 13 13 14 14 15 15 15 16 16 17 17 18 18 19 19 19 19 19 19 19 19 19 19 19 18 18 18 18 18 18 18 18 18 18 18 18 18 18
19 20 20 19 17 17 16 14 14 14 13 13 13 13 13 14 15 15 15 16 16 17 17 18 18 18 19 19 19 19 19 19 18 18 19 19 18 18 18 18 18 18 18 18 18 18 18 18 18
21 20 19 18 16 15 14 13 14 13 13 12 12 12 13 13 14 14 15 15 16 16 17 17 18 18 18 19 19 19 19 19 19 18 19 19 18 18 18 18 18 18 18 18 18 18 18 18 18
20 19 18 18 16 14 14 13 13 13 13 12 12 12 12 12 13 14 14 15 15 16 17 17 17 18 18 18 18 18 18 19 19 19 19 18 18 18 18 18 18 18 18 18 18 18 17 17 17
19 18 18 17 16 14 13 13 13 13 12 12 12 11 11 12 13 13 14 14 14 15 16 16 17 17 17 17 18 18 18 18 19 19 18 18 18 18 18 18 18 18 18 18 17 17 17 17 17
17 17 17 17 15 14 13 13 12 12 13 12 12 12 11 11 11 12 13 13 14 14 15 15 16 16 16 17 17 17 18 18 18 18 18 18 18 18 18 18 18 17 17 17 17 17 17 17 17
16 17 17 17 14 13 13 12 11 11 11 12 12 11 11 11 11 11 12 12 13 13 14 14 15 15 15 16 16 17 17 17 18 18 18 18 18 18 18 18 17 17 17 17 17 17 17 16 17
16 15 15 15 13 11 11 11 11 10 10 11 11 11 11 11 11 11 11 12 12 13 13 13 14 14 15 15 15 16 16 16 16 17 17 17 17 17 17 17 17 17 17 17 17 16 16 16 16
14 15 14 12 11 11 11 11 11 10 10 11 11 11 11 11 11 11 11 12 12 12 13 13 13 14 14 14 15 15 15 15 16 16 16 16 16 16 16 17 16 16 16 16 16 16 16 16 16
12 13 13 13 11 11 11 11 11 11 11 11 11 11 11 11 11 11 11 11 12 12 13 13 13 13 13 14 14 14 14 15 15 15 15 16 16 16 16 16 16 16 16 16 16 16 15 15 15
12 12 12 13 12 11 11 11 11 12 12 12 11 11 11 11 11 11 11 11 11 12 12 12 13 13 13 13 13 14 14 14 14 15 15 15 15 15 15 15 15 15 15 15 15 15 15 15 15
13 11 11 10 11 11 11 11 11 12 11 12 11 11 11 11 11 11 11 11 11 12 12 12 12 13 13 13 13 13 14 14 14 14 15 15 15 15 15 15 15 14 14 14 14 14 14 14 14
12 11 9 10 11 11 11 11 10 10 10 11 11 11 11 11 11 11 11 11 11 11 12 12 12 12 12 13 13 13 13 13 14 14 14 14 14 14 14 14 14 14 14 14 14 14 14 14 14
12 11 9 8 9 10 10 10 11 10 10 10 11 11 11 11 11 11 11 11 11 11 12 12 12 12 12 13 13 13 13 13 13 13 14 14 14 14 14 14 14 14 14 14 14 14 14 14 14
12 11 10 10 9 9 9 10 11 11 11 11 11 12 12 12 12 12 11 11 11 11 12 12 12 12 12 12 12 13 13 13 13 13 13 14 14 14 14 14 14 14 14 14 14 14 14 14 14
Wind_Speed
3 6 3 3 5 6 4 4 2 2 4 3 4 5 6 4 2 2 3 9 11 11 13 15 14 14 13 12 12 11 11 11 12 12 12 12 12 12 12 11 10 10 9 8 8 8 8 8 8
4 4 3 5 6 5 3 4 1 1 4 4 5 5 6 4 3 6 6 7 12 12 13 14 15 14 13 12 12 11 11 11 11 11 11 11 11 11 11 10 10 9 9 8 8 8 7 7 7
5 2 4 5 5 4 1 2 1 4 4 3 4 5 4 3 5 5 6 11 11 11 12 14 16 14 13 13 12 11 11 10 10 10 10 10 9 9 9 9 9 9 9 8 7 7 7 7 7
4 4 5 6 3 2 2 1 3 5 3 5 4 5 4 3 6 6 11 12 12 9 12 14 16 15 13 13 12 11 11 10 10 10 9 9 9 9 9 8 8 8 8 7 7 6 6 6 6
3 4 6 5 4 3 2 1 3 4 3 4 4 4 3 4 8 13 13 12 11 9 11 14 16 15 14 13 12 12 11 11 10 10 9 9 8 8 8 8 8 7 7 6 6 5 5 5 5
4 5 5 4 6 5 3 2 3 4 4 4 4 4 2 3 9 12 12 10 10 10 10 13 16 15 14 14 13 12 12 11 11 10 9 9 8 8 8 7 7 6 5 5 4 4 4 5 5
4 5 4 2 4 5 5 3 4 4 4 3 5 5 2 3 6 10 9 8 7 7 8 9 13 15 15 14 14 13 12 12 11 11 10 9 8 8 7 7 6 5 4 4 3 3 3 4 4
4 5 4 3 3 4 7 4 2 3 2 3 4 6 5 6 7 8 7 6 6 6 6 7 10 11 12 13 14 14 13 12 12 11 10 10 9 8 8 7 6 5 4 3 2 1 2 3 4
4 5 2 0 1 3 6 6 4 4 5 3 2 3 4 10 10 8 6 5 5 7 5 5 6 8 10 11 13 14 14 13 13 12 11 10 8 7 7 7 6 6 5 4 2 1 1 2 4
5 4 3 3 2 1 5 6 7 6 7 6 6 7 8 11 9 8 7 8 9 9 7 6 6 6 8 10 10 11 12 12 12 11 10 9 8 7 6 7 7 7 6 5 4 2 1 3 4
4 4 2 1 2 2 3 8 11 7 7 6 5 4 9 8 5 4 4 5 8 7 8 8 7 7 7 6 7 8 9 10 11 12 11 9 8 7 6 5 6 5 5 3 2 2 1 1 1
3 1 1 2 4 5 5 5 10 16 9 9 8 10 10 7 5 3 3 3 3 4 6 7 8 7 7 7 6 6 7 7 9 11 12 9 6 5 5 5 5 5 4 3 3 2 2 2 2
4 2 4 7 11 12 14 12 9 16 15 15 18 19 16 13 11 9 9 7 5 4 5 5 7 8 7 6 5 6 7 8 10 11 13 12 7 4 5 5 6 6 6 5 4 3 3 3 3
3 5 6 8 9 8 16 14 10 13 14 18 20 18 16 15 14 13 13 12 10 7 6 5 6 7 7 8 8 6 8 9 10 11 13 14 11 7 5 4 5 6 7 7 5 4 3 3 3
3 6 8 8 6 3 9 15 14 13 14 18 18 16 16 15 14 14 13 11 10 9 8 6 5 6 8 9 9 7 8 10 9 11 13 15 14 11 7 5 5 6 8 7 5 4 3 2 2
5 6 5 7 9 6 10 9 14 12 14 16 16 15 14 14 14 13 13 12 11 11 10 8 7 4 5 7 7 6 7 8 8 11 12 15 16 14 9 6 6 8 7 5 4 3 2 2 2
7 4 4 6 12 7 10 8 11 12 15 15 15 14 13 13 15 14 13 12 11 11 11 10 9 7 5 5 7 7 6 6 8 9 10 12 14 14 10 6 6 7 5 4 5 3 3 3 3
1 3 4 5 7 12 13 10 11 13 14 14 13 13 13 14 14 14 13 12 11 10 10 9 9 8 7 5 4 5 6 6 6 7 8 10 11 13 10 6 5 5 4 4 4 4 3 3 3
4 4 4 4 5 8 11 11 9 11 14 15 14 13 14 14 12 12 12 12 11 11 10 10 9 9 7 4 3 3 5 6 6 6 7 9 9 9 8 6 5 4 5 6 6 4 4 2 3
5 5 3 4 6 7 9 9 6 8 11 11 12 13 14 15 15 15 14 12 11 10 10 10 9 9 7 5 4 4 4 4 6 6 7 9 9 8 7 7 6 5 4 4 4 4 3 2 3
4 4 1 1 4 5 4 4 7 5 7 10 11 10 12 14 15 15 14 13 12 11 11 10 10 10 9 7 5 4 3 2 3 5 6 7 9 9 8 7 7 7 6 5 5 5 5 4 3
2 2 2 2 4 2 3 0 6 8 9 14 15 14 14 14 14 14 14 14 13 12 11 10 9 9 9 8 5 5 3 4 4 3 4 5 6 8 8 7 7 7 6 6 6 5 3 4 3
3 4 2 2 5 5 8 4 5 7 10 15 15 15 14 14 14 14 14 13 12 11 10 9 9 9 9 8 6 5 4 3 3 2 3 4 4 5 7 7 7 7 7 7 7 6 6 4 4
3 3 6 6 5 5 5 3 5 6 10 15 14 15 14 14 14 14 13 12 10 9 9 8 8 8 8 8 7 6 5 3 2 1 2 3 2 3 4 4 5 6 6 7 7 7 7 6 5
9 6 5 6 6 2 4 3 3 6 8 9 13 14 14 13 13 14 15 14 13 12 10 9 8 8 8 8 7 7 6 5 4 2 1 2 2 2 3 3 4 4 5 6 6 7 7 7 6
5 5 5 2 1 2 3 3 4 6 7 8 9 11 13 14 13 14 14 13 12 12 11 10 9 8 8 7 7 7 7 5 4 4 3 2 2 2 2 3 3 3 3 5 5 5 5 5 6
4 4 3 6 3 2 3 3 4 6 10 10 12 13 14 14 14 14 14 13 12 12 10 10 9 8 8 8 7 7 8 7 6 6 5 4 3 3 3 3 3 2 2 3 4 4 4 4 4
5 4 5 5 3 1 3 3 5 10 13 13 13 13 14 14 14 14 13 13 12 11 10 9 9 8 7 8 8 7 8 8 7 7 7 6 5 4 3 3 3 2 2 3 3 3 3 3 3
6 5 6 5 4 4 1 4 4 6 9 11 12 12 11 12 12 12 12 12 11 10 10 10 10 9 9 9 8 8 8 8 7 7 7 6 5 5 5 3 3 3 3 3 3 3 3 3 2
4 4 3 4 2 3 2 4 6 6 8 8 10 10 10 10 10 9 10 10 10 11 11 11 11 10 9 9 8 8 8 8 8 8 7 7 6 6 6 5 5 4 4 4 4 3 3 3 2
Wind_Direction
182 134 109 65 54 51 34 337 311 23 53 45 70 90 101 109 163 183 124 139 137 145 155 155 153 151 148 144 140 135 132 130 128 127 127 127 128 130 129 128 126 125 123 122 121 122 122 117 115
143 136 79 60 77 66 344 310 334 30 123 123 70 72 72 68 72 108 133 143 142 146 151 154 155 154 152 150 147 144 141 137 134 132 130 129 130 131 131 131 130 129 128 125 122 123 120 113 109
152 130 83 67 84 136 204 290 130 77 93 84 71 60 78 105 127 141 154 144 142 145 149 157 157 157 157 155 154 152 147 143 140 137 135 133 133 133 134 133 132 132 130 128 125 123 120 115 107
120 57 53 64 57 243 249 250 151 121 73 57 86 63 57 87 143 142 139 145 145 145 151 162 161 163 163 162 161 158 155 151 148 145 143 140 139 140 139 138 136 135 133 130 127 123 120 116 107
72 74 53 40 2 333 305 265 157 113 72 59 81 82 39 18 113 132 142 150 151 149 157 168 167 169 170 169 168 167 164 161 159 156 153 150 148 146 145 143 139 138 136 130 124 123 122 115 106
59 65 66 23 342 341 358 13 96 87 90 90 95 89 37 113 129 144 149 152 155 157 161 172 174 176 178 178 177 177 174 172 170 167 164 162 159 155 152 148 145 143 139 131 122 114 113 107 95
93 80 85 34 350 0 358 1 102 109 117 150 125 99 78 168 159 147 146 144 149 158 163 176 181 183 185 187 186 185 183 182 180 177 175 174 170 168 164 160 157 154 149 144 130 108 98 90 82
107 92 69 24 26 346 336 1 72 97 108 109 109 134 181 195 152 133 126 132 149 164 175 181 184 185 189 192 193 192 190 190 188 186 186 185 184 182 180 177 176 176 175 176 164 121 84 66 58
79 72 69 299 65 330 346 14 22 56 78 57 69 158 186 141 134 128 127 141 168 188 195 191 191 191 192 193 199 197 197 198 195 194 195 194 193 193 194 193 197 201 202 207 213 218 14 38 39
72 105 207 209 175 61 18 22 9 46 45 18 22 45 97 127 141 153 167 181 193 201 203 201 200 198 195 201 204 199 198 199 197 196 199 195 194 200 205 210 216 218 220 227 236 253 337 38 33
88 150 213 252 163 96 63 53 31 48 28 351 344 55 103 113 129 163 197 208 211 211 209 205 204 204 202 207 204 200 197 194 195 196 198 195 196 207 214 216 235 243 241 244 273 314 351 8 353
94 98 73 13 60 57 53 57 51 40 11 356 46 66 64 64 45 11 337 298 260 229 223 216 207 206 209 212 213 204 199 197 197 199 198 192 194 206 213 214 225 233 235 234 247 260 274 278 271
64 61 53 52 74 72 68 60 67 32 20 41 53 52 47 43 31 23 13 1 341 298 264 241 214 211 211 211 219 214 211 209 206 201 202 199 199 206 213 220 221 224 223 222 232 244 257 268 270
54 81 62 43 65 71 74 50 42 16 23 43 47 47 43 38 30 26 21 12 6 353 325 285 244 220 211 216 220 218 215 216 209 207 208 206 208 210 210 219 221 222 218 219 221 231 245 259 266
76 86 52 30 34 88 86 47 24 13 34 43 39 37 36 31 27 22 14 9 3 356 348 331 271 232 222 223 226 225 219 216 215 214 212 210 211 212 211 214 221 223 216 212 215 228 237 249 243
48 62 46 16 16 36 77 60 17 15 38 39 32 27 26 22 21 16 9 5 2 358 353 347 338 318 254 236 229 230 225 215 220 216 212 213 215 213 209 213 225 220 203 195 196 204 214 228 218
35 57 41 19 21 46 74 74 25 23 39 37 27 20 16 11 11 8 4 360 358 355 350 349 347 340 318 272 238 227 225 220 222 216 210 210 212 213 209 214 223 214 195 192 205 189 186 196 197
27 67 59 48 43 70 82 78 43 29 37 32 21 14 9 5 360 355 353 351 349 347 343 345 346 341 331 313 267 235 225 224 218 216 215 209 206 206 205 209 215 204 199 201 193 184 180 181 176
95 95 86 69 95 80 88 78 47 31 31 24 15 9 2 353 346 348 348 346 342 342 341 339 344 341 338 332 309 265 238 235 225 216 212 210 204 200 194 200 193 192 204 209 191 171 171 168 138
75 88 68 64 90 102 105 78 42 34 30 19 7 359 354 346 346 347 345 342 339 334 333 332 336 334 329 315 293 266 255 242 229 218 206 207 199 195 196 190 183 185 195 196 184 164 158 167 163
55 96 85 147 78 86 119 64 15 2 9 11 7 355 350 345 341 339 338 335 334 333 332 331 330 331 326 318 306 297 273 254 232 217 208 202 194 189 183 183 182 183 186 193 188 179 171 178 193
353 348 300 206 122 63 1 156 360 335 344 359 356 353 347 341 338 337 335 331 329 326 325 325 327 329 328 328 324 313 288 271 259 242 215 195 191 187 179 178 180 182 182 187 193 185 186 173 182
305 337 28 108 122 73 24 63 335 339 351 347 344 344 342 338 335 335 331 326 322 323 325 325 326 331 332 334 334 327 313 295 282 253 195 188 185 182 179 174 176 184 186 190 189 182 190 190 185
342 57 61 54 72 56 347 32 350 345 333 331 335 338 338 336 336 333 332 330 327 330 333 331 332 334 339 345 348 349 343 335 322 274 199 178 164 162 174 172 181 188 189 193 193 186 191 197 196
35 64 42 24 34 26 335 56 328 308 321 323 326 330 333 335 338 338 341 342 340 341 342 342 344 342 346 353 358 359 360 1 1 340 181 150 146 155 173 172 187 194 193 190 184 184 190 193 194
31 81 117 140 151 312 4 13 290 295 315 321 327 332 339 343 342 341 341 341 341 343 346 348 352 353 355 0 3 7 10 14 18 23 44 75 98 124 133 141 152 158 171 182 179 181 185 188 195
57 57 118 120 108 68 357 334 317 333 340 342 343 345 344 343 343 344 345 346 343 345 349 353 358 2 2 5 9 17 19 23 27 32 40 49 56 76 95 112 128 137 141 152 160 170 175 179 189
83 102 74 82 107 59 345 344 318 324 329 334 338 339 337 341 346 348 349 349 347 350 355 1 4 6 8 11 16 23 21 23 26 34 38 39 42 52 66 77 93 97 117 151 151 147 153 162 177
21 50 76 82 97 126 15 306 265 286 305 317 321 328 330 338 344 347 349 351 352 0 6 10 11 14 16 16 18 21 22 23 27 31 30 34 40 44 54 63 81 81 77 91 111 114 117 123 142
94 80 114 117 95 106 135 277 284 290 299 307 314 322 328 332 337 340 343 349 358 7 9 12 15 18 16 16 21 24 22 24 28 29 27 30 37 39 43 50 62 66 69 73 90 106 110 120 137
Height
1509 1509 1509 1511 1513 1524 1526 1519 1514 1512 1512 1513 1513 1514 1515 1519 1522 1526 1522 1522 1526 1529 1532 1535 1538 1540 1542 1543 1545 1546 1547 1548 1549 1550 1551 1552 1552 1553 1554 1555 1556 1556 1557 1558 1558 1559 1559 1559 1560
1509 1509 1511 1511 1522 1538 1530 1518 1515 1513 1513 1514 1514 1515 1517 1518 1519 1519 1520 1524 1527 1530 1533 1536 1538 1541 1542 1544 1545 1547 1548 1549 1550 1551 1552 1552 1553 1554 1555 1555 1556 1557 1557 1558 1559 1559 1559 1560 1561
1510 1510 1512 1514 1525 1533 1526 1517 1515 1513 1514 1514 1516 1517 1519 1520 1520 1521 1522 1525 1528 1532 1534 1537 1539 1541 1543 1545 1546 1547 1548 1549 1550 1551 1552 1553 1553 1554 1555 1555 1556 1557 1557 1558 1559 1559 1560 1560 1561
1510 1512 1513 1520 1525 1522 1519 1515 1514 1514 1515 1515 1517 1519 1521 1522 1522 1523 1524 1527 1529 1532 1535 1538 1540 1542 1544 1545 1547 1548 1549 1550 1551 1552 1552 1553 1554 1554 1555 1556 1556 1557 1557 1558 1559 1559 1560 1561 1562
1511 1512 1519 1527 1525 1519 1515 1514 1515 1515 1516 1517 1518 1520 1522 1524 1524 1525 1527 1529 1531 1533 1536 1538 1540 1542 1544 1546 1547 1548 1549 1550 1551 1552 1553 1554 1554 1555 1555 1556 1556 1557 1557 1558 1559 1560 1560 1561 1562
1512 1514 1530 1535 1528 1519 1516 1515 1515 1516 1517 1518 1519 1521 1524 1525 1526 1527 1529 1530 1532 1535 1537 1539 1541 1543 1544 1546 1547 1548 1549 1550 1551 1552 1553 1554 1554 1555 1555 1556 1556 1557 1557 1558 1559 1560 1560 1561 1562
1514 1519 1530 1532 1530 1523 1519 1517 1517 1518 1519 1520 1521 1522 1524 1525 1528 1529 1530 1532 1534 1536 1538 1539 1541 1542 1544 1546 1547 1548 1549 1550 1551 1552 1553 1554 1554 1555 1555 1556 1556 1557 1557 1558 1559 1559 1560 1561 1562
1514 1520 1529 1532 1530 1527 1521 1519 1519 1520 1521 1522 1523 1523 1525 1526 1528 1530 1532 1533 1535 1537 1538 1540 1541 1543 1544 1545 1546 1548 1549 1550 1551 1552 1552 1553 1554 1554 1555 1555 1556 1556 1557 1558 1559 1559 1560 1561 1562
1516 1526 1534 1530 1529 1527 1522 1521 1522 1523 1523 1524 1525 1525 1526 1527 1529 1531 1533 1534 1535 1537 1538 1540 1541 1542 1544 1545 1546 1547 1548 1549 1550 1551 1552 1553 1553 1554 1554 1555 1555 1556 1557 1558 1558 1559 1560 1561 1561
1517 1530 1528 1525 1524 1525 1525 1525 1525 1525 1526 1527 1527 1527 1527 1529 1530 1532 1533 1535 1536 1537 1538 1539 1541 1542 1543 1544 1545 1546 1547 1548 1549 1550 1551 1552 1552 1553 1553 1554 1554 1555 1556 1557 1558 1559 1560 1560 1561
1519 1524 1523 1523 1524 1525 1526 1529 1531 1529 1533 1533 1531 1530 1530 1531 1533 1534 1535 1536 1537 1538 1539 1540 1540 1541 1542 1543 1543 1544 1545 1546 1547 1548 1550 1551 1551 1552 1552 1553 1553 1554 1555 1556 1557 1558 1559 1560 1561
1521 1522 1523 1525 1525 1526 1528 1532 1535 1537 1541 1537 1533 1533 1533 1534 1535 1536 1537 1537 1538 1538 1539 1539 1540 1540 1541 1542 1542 1543 1543 1544 1545 1546 1548 1549 1550 1551 1552 1552 1552 1553 1554 1555 1557 1558 1559 1560 1561
1522 1524 1525 1527 1528 1531 1532 1536 1540 1544 1543 1538 1535 1535 1537 1538 1538 1538 1537 1537 1537 1537 1538 1539 1539 1539 1540 1540 1540 1541 1541 1542 1543 1544 1545 1547 1548 1549 1550 1551 1551 1552 1553 1554 1556 1558 1559 1560 1561
1525 1526 1528 1529 1530 1534 1536 1543 1545 1550 1546 1541 1539 1539 1540 1539 1539 1537 1536 1536 1535 1535 1535 1536 1536 1537 1538 1538 1538 1539 1540 1540 1541 1542 1543 1545 1546 1548 1549 1550 1550 1551 1552 1553 1555 1557 1558 1559 1561
1525 1528 1531 1533 1533 1536 1536 1550 1556 1555 1550 1546 1544 1544 1543 1542 1540 1538 1537 1535 1534 1533 1533 1533 1533 1533 1534 1535 1536 1537 1537 1538 1539 1540 1541 1542 1544 1545 1547 1548 1549 1550 1551 1553 1554 1556 1557 1558 1560
1527 1534 1542 1540 1537 1538 1543 1563 1563 1559 1554 1551 1549 1548 1546 1544 1542 1540 1538 1536 1533 1532 1530 1529 1529 1529 1530 1531 1532 1533 1534 1535 1535 1536 1538 1539 1540 1542 1544 1545 1547 1549 1550 1551 1553 1554 1555 1557 1558
1539 1545 1547 1546 1544 1544 1550 1565 1566 1562 1557 1555 1554 1551 1549 1546 1544 1541 1539 1536 1534 1531 1529 1527 1526 1526 1525 1526 1527 1528 1529 1530 1531 1532 1534 1535 1536 1538 1540 1542 1544 1546 1547 1549 1551 1552 1554 1555 1557
1547 1548 1550 1553 1554 1553 1559 1568 1568 1565 1561 1559 1557 1554 1551 1548 1546 1543 1539 1536 1534 1531 1529 1526 1524 1522 1521 1521 1522 1523 1524 1525 1525 1527 1529 1531 1532 1534 1536 1538 1541 1543 1544 1546 1548 1550 1552 1553 1555
1544 1549 1553 1554 1555 1560 1565 1569 1569 1567 1563 1561 1559 1556 1553 1550 1547 1543 1539 1536 1533 1530 1527 1524 1521 1519 1518 1517 1517 1517 1518 1519 1520 1521 1523 1525 1527 1529 1531 1533 1536 1538 1540 1542 1545 1547 1549 1550 1552
1548 1553 1556 1557 1557 1562 1569 1571 1570 1568 1567 1565 1562 1558 1554 1549 1545 1541 1538 1535 1531 1528 1525 1522 1519 1517 1515 1513 1512 1512 1512 1513 1514 1516 1517 1519 1522 1523 1525 1528 1530 1533 1535 1538 1541 1543 1545 1547 1549
1553 1555 1556 1558 1561 1564 1568 1573 1573 1569 1568 1565 1563 1559 1555 1551 1545 1540 1536 1533 1529 1526 1523 1520 1517 1514 1512 1510 1508 1507 1507 1508 1509 1510 1511 1513 1516 1518 1520 1522 1525 1527 1530 1533 1536 1538 1541 1543 1545
1559 1554 1554 1555 1564 1574 1572 1580 1578 1573 1569 1565 1562 1558 1554 1550 1545 1540 1535 1531 1527 1524 1521 1517 1515 1512 1509 1507 1504 1503 1503 1503 1503 1505 1506 1508 1510 1512 1514 1517 1519 1521 1524 1527 1530 1533 1536 1539 1540
1556 1554 1555 1557 1566 1577 1580 1582 1584 1575 1572 1567 1563 1559 1555 1550 1545 1539 1534 1530 1526 1522 1519 1516 1513 1510 1507 1504 1502 1500 1499 1499 1499 1500 1501 1502 1504 1507 1510 1512 1514 1516 1519 1521 1524 1527 1530 1533 1536
1556 1556 1559 1566 1573 1587 1587 1586 1587 1581 1577 1570 1565 1560 1555 1549 1544 1539 1534 1529 1525 1521 1518 1515 1511 1508 1505 1503 1500 1499 1497 1497 1496 1497 1498 1499 1501 1503 1505 1508 1510 1512 1514 1516 1519 1522 1524 1527 1530
1560 1567 1577 1579 1589 1591 1585 1586 1588 1579 1576 1572 1567 1561 1555 1550 1544 1538 1532 1528 1524 1520 1516 1513 1510 1508 1504 1502 1500 1498 1497 1496 1495 1495 1496 1497 1499 1500 1502 1504 1506 1507 1509 1511 1514 1517 1519 1522 1524
1567 1572 1583 1586 1591 1593 1587 1589 1586 1578 1575 1571 1567 1561 1556 1550 1544 1539 1533 1528 1524 1520 1516 1513 1510 1507 1505 1502 1500 1498 1497 1496 1495 1495 1495 1496 1498 1499 1500 1502 1503 1504 1505 1507 1509 1511 1514 1517 1519
1569 1576 1576 1586 1589 1593 1591 1588 1582 1576 1573 1570 1566 1561 1556 1551 1545 1540 1534 1530 1525 1521 1517 1514 1511 1508 1506 1504 1502 1500 1499 1498 1496 1496 1496 1497 1497 1498 1499 1500 1502 1502 1503 1505 1506 1508 1510 1512 1515
1571 1575 1581 1587 1593 1595 1593 1592 1591 1581 1576 1571 1567 1562 1557 1552 1547 1541 1536 1531 1527 1522 1519 1516 1513 1510 1508 1506 1504 1503 1501 1500 1499 1498 1498 1498 1498 1499 1499 1500 1501 1501 1502 1503 1505 1506 1507 1509 1512
1576 1579 1586 1593 1594 1598 1599 1598 1584 1581 1577 1573 1568 1564 1559 1555 1550 1545 1540 1535 1530 1526 1522 1519 1516 1513 1511 1509 1507 1506 1504 1503 1502 1501 1501 1500 1500 1500 1500 1500 1500 1500 1501 1502 1503 1504 1506 1508 1510
1575 1580 1584 1591 1598 1599 1600 1599 1579 1579 1576 1573 1569 1565 1561 1557 1553 1548 1543 1538 1534 1529 1526 1522 1519 1517 1514 1513 1511 1509 1507 1506 1505 1504 1503 1502 1502 1502 1501 1501 1501 1501 1501 1502 1502 1503 1505 1507 1509